FW7690 Weather Reports


Display with metric or nautical units.
time (UTC)temp
F
wind
direction
speed
MPH
gust
MPH
rain 1hr
in
rain 24hr
in
rain mn
in
humidity
%
barometer
mb
20260507194030 59 0 0.0 0.0 0.00 0.00 0.00 82 1013.1
20260507193530 60 0 0.0 0.0 0.00 0.00 0.00 82 1013.1
20260507193046 60 0 0.0 0.0 0.00 0.00 0.00 82 1013.2
20260507192533 60 0 0.0 0.0 0.00 0.00 0.00 83 1013.2
20260507192034 60 0 0.0 0.0 0.00 0.00 0.00 82 1013.1
20260507191547 61 0 0.0 0.0 0.00 0.00 0.00 81 1013.1
20260507191033 61 0 0.0 1.0 0.00 0.00 0.00 81 1013.2
20260507190534 61 0 0.0 2.0 0.00 0.00 0.00 80 1013.2
20260507190052 61 0 1.0 2.0 0.00 0.00 0.00 80 1013.2
20260507185534 61 323 1.0 3.0 0.00 0.00 0.00 80 1013.2
20260507185034 61 332 1.0 3.0 0.00 0.00 0.00 80 1013.0
20260507184550 61 325 2.0 3.0 0.00 0.00 0.00 80 1013.1
20260507184030 62 311 2.0 3.0 0.00 0.00 0.00 79 1013.1
20260507183530 62 321 2.0 3.0 0.00 0.00 0.00 78 1013.0
20260507183047 62 328 2.0 4.0 0.00 0.00 0.00 78 1013.1
20260507182533 63 321 2.0 4.0 0.00 0.00 0.00 78 1013.0
20260507182033 63 318 3.0 4.0 0.00 0.00 0.00 76 1013.0
20260507181558 64 321 1.0 3.0 0.00 0.00 0.00 75 1012.8
20260507181035 64 326 1.0 4.0 0.00 0.00 0.00 73 1013.0
20260507180534 64 321 2.0 4.0 0.00 0.00 0.00 73 1013.0
20260507180046 65 324 2.0 4.0 0.00 0.00 0.00 71 1013.1
20260507175533 65 331 2.0 7.0 0.00 0.00 0.00 71 1012.9
20260507175033 65 307 4.0 7.0 0.00 0.00 0.00 71 1012.8
20260507174556 65 322 5.0 7.0 0.00 0.00 0.00 69 1012.9
20260507174034 65 340 4.0 6.0 0.00 0.00 0.00 70 1012.9
20260507173532 65 314 3.0 6.0 0.00 0.00 0.00 70 1012.9
20260507173116 65 338 3.0 7.0 0.00 0.00 0.00 69 1013.0
20260507172533 65 329 4.0 8.0 0.00 0.00 0.00 71 1012.9
20260507172032 66 326 4.0 8.0 0.00 0.00 0.00 69 1012.8
20260507171549 66 320 4.0 7.0 0.00 0.00 0.00 70 1012.7
20260507171033 66 297 4.0 7.0 0.00 0.00 0.00 68 1012.8
20260507170533 66 321 5.0 7.0 0.00 0.00 0.00 69 1012.7
20260507170058 66 327 3.0 7.0 0.00 0.00 0.00 68 1012.8
20260507165532 66 324 4.0 7.0 0.00 0.00 0.00 67 1012.9
20260507165034 67 320 5.0 7.0 0.00 0.00 0.00 66 1012.9
20260507164550 67 320 5.0 7.0 0.00 0.00 0.00 63 1012.9
20260507164033 68 311 3.0 6.0 0.00 0.00 0.00 61 1012.9
20260507163533 68 323 3.0 6.0 0.00 0.00 0.00 62 1012.9
20260507163048 68 310 4.0 7.0 0.00 0.00 0.00 61 1013.0
20260507162532 68 318 5.0 8.0 0.00 0.00 0.00 62 1012.9
20260507162035 68 316 3.0 10.0 0.00 0.00 0.00 63 1012.9
20260507161600 68 331 4.0 10.0 0.00 0.00 0.00 62 1012.9
20260507161032 68 322 4.0 7.0 0.00 0.00 0.00 62 1012.9
20260507160532 68 306 4.0 8.0 0.00 0.00 0.00 61 1012.9
20260507160049 68 322 5.0 8.0 0.00 0.00 0.00 60 1012.8
20260507155534 68 20 3.0 8.0 0.00 0.00 0.00 57 1012.8
20260507155033 68 322 6.0 8.0 0.00 0.00 0.00 60 1012.7
20260507154545 68 319 5.0 8.0 0.00 0.00 0.00 63 1012.7
20260507154033 68 328 5.0 9.0 0.00 0.00 0.00 60 1012.8
20260507153533 68 325 4.0 9.0 0.00 0.00 0.00 58 1012.8
20260507153055 68 329 4.0 9.0 0.00 0.00 0.00 59 1012.9
20260507152537 69 319 4.0 8.0 0.00 0.00 0.00 61 1012.9
20260507152033 69 323 3.0 11.0 0.00 0.00 0.00 60 1012.8
20260507151548 68 315 5.0 11.0 0.00 0.00 0.00 61 1012.8
20260507151031 68 306 5.0 10.0 0.00 0.00 0.00 62 1012.8
20260507150533 69 311 3.0 10.0 0.00 0.00 0.00 60 1013.0
20260507150050 69 310 5.0 11.0 0.00 0.00 0.00 62 1013.0
20260507145530 69 313 2.0 11.0 0.00 0.00 0.00 60 1013.1
20260507145033 68 295 7.0 11.0 0.00 0.00 0.00 59 1013.1
20260507144551 68 282 7.0 11.0 0.00 0.00 0.00 62 1013.1
20260507144034 69 302 5.0 13.0 0.00 0.00 0.00 59 1013.2
20260507143534 69 309 6.0 13.0 0.00 0.00 0.00 57 1013.1
20260507143051 69 309 6.0 10.0 0.00 0.00 0.00 56 1013.2
20260507142534 69 275 6.0 10.0 0.00 0.00 0.00 54 1013.1
20260507142034 69 279 4.0 8.0 0.00 0.00 0.00 52 1013.3
20260507141624 69 217 4.0 10.0 0.00 0.00 0.00 49 1013.2
20260507141037 69 227 6.0 10.0 0.00 0.00 0.00 54 1013.3
20260507140533 69 283 4.0 10.0 0.00 0.00 0.00 52 1013.4
20260507140048 69 307 5.0 10.0 0.00 0.00 0.00 55 1013.3
20260507135531 69 291 6.0 11.0 0.00 0.13 0.00 52 1013.5
20260507135034 69 262 4.0 11.0 0.00 0.13 0.00 54 1013.3
20260507134546 69 263 7.0 11.0 0.00 0.13 0.00 56 1013.5
20260507134031 68 340 7.0 11.0 0.00 0.13 0.00 54 1013.6
20260507133535 69 304 6.0 10.0 0.00 0.13 0.00 55 1013.7
20260507133047 69 293 7.0 11.0 0.00 0.13 0.00 59 1013.6
20260507132535 69 252 6.0 11.0 0.00 0.13 0.00 52 1013.6
20260507132033 69 279 6.0 9.0 0.00 0.13 0.00 55 1013.5
20260507131548 69 324 5.0 11.0 0.00 0.13 0.00 60 1013.6
20260507131033 69 319 6.0 11.0 0.00 0.13 0.00 52 1013.5
20260507130535 69 290 4.0 9.0 0.00 0.13 0.00 57 1013.7
20260507130045 69 259 4.0 9.0 0.00 0.13 0.00 60 1013.7
20260507125535 69 269 4.0 10.0 0.00 0.13 0.00 54 1013.7
20260507125033 69 300 5.0 10.0 0.00 0.13 0.00 58 1013.7
20260507124547 69 307 4.0 10.0 0.00 0.13 0.00 58 1013.6
20260507124031 69 309 6.0 10.0 0.00 0.13 0.00 56 1013.7
20260507123531 69 214 2.0 9.0 0.00 0.13 0.00 55 1013.5
20260507123048 69 288 6.0 9.0 0.00 0.13 0.00 58 1013.7
20260507122530 69 298 2.0 9.0 0.00 0.13 0.00 58 1013.5
20260507122033 69 302 3.0 9.0 0.00 0.13 0.00 57 1013.6
20260507121545 69 275 5.0 10.0 0.00 0.13 0.00 60 1013.5
20260507121034 69 259 6.0 10.0 0.00 0.13 0.00 55 1013.6
20260507120535 69 237 3.0 6.0 0.00 0.13 0.00 59 1013.6
20260507120056 69 274 3.0 6.0 0.00 0.13 0.00 59 1013.6
20260507115533 69 300 3.0 7.0 0.00 0.14 0.00 53 1013.7
20260507115033 69 285 4.0 8.0 0.00 0.14 0.00 57 1013.6
20260507114543 69 305 4.0 10.0 0.00 0.14 0.00 57 1013.7
20260507114033 69 302 3.0 10.0 0.00 0.14 0.00 60 1013.6
20260507113535 70 293 5.0 8.0 0.00 0.14 0.00 64 1013.7
20260507113051 69 154 4.0 10.0 0.00 0.14 0.00 56 1013.8
20260507112533 69 162 6.0 10.0 0.00 0.14 0.00 60 1013.8
20260507112032 69 245 4.0 8.0 0.00 0.14 0.00 62 1013.8
20260507111547 69 255 4.0 8.0 0.00 0.14 0.00 61 1014.0
20260507111030 69 296 0.0 9.0 0.00 0.14 0.00 64 1013.9
20260507110531 68 320 3.0 9.0 0.00 0.14 0.00 60 1014.0
20260507110045 68 285 4.0 9.0 0.00 0.14 0.00 62 1014.0
20260507105532 68 321 4.0 9.0 0.00 0.14 0.00 63 1014.0
20260507105033 68 224 4.0 10.0 0.00 0.14 0.00 66 1013.9
20260507104548 68 294 5.0 10.0 0.00 0.14 0.00 64 1014.1
20260507104033 68 304 1.0 5.0 0.00 0.14 0.00 67 1014.1
20260507103532 67 0 1.0 5.0 0.00 0.14 0.00 66 1014.0
20260507103047 66 275 1.0 6.0 0.00 0.14 0.00 69 1014.2
20260507102534 66 304 3.0 8.0 0.00 0.14 0.00 69 1014.3
20260507102032 66 293 4.0 8.0 0.00 0.14 0.00 70 1014.4
20260507101544 67 316 1.0 6.0 0.00 0.14 0.00 70 1014.5
20260507101031 67 306 3.0 6.0 0.00 0.14 0.00 67 1014.5
20260507100536 67 307 2.0 6.0 0.00 0.14 0.00 71 1014.5
20260507100048 67 322 4.0 6.0 0.00 0.14 0.00 72 1014.3
20260507095531 68 298 2.0 6.0 0.00 0.14 0.00 72 1014.4
20260507095034 67 315 0.0 5.0 0.00 0.14 0.00 69 1014.3
20260507094553 67 211 0.0 5.0 0.00 0.14 0.00 73 1014.1
20260507094033 67 335 1.0 4.0 0.00 0.14 0.00 73 1014.2
20260507093533 67 267 3.0 4.0 0.00 0.14 0.00 69 1014.1
20260507093047 67 316 1.0 5.0 0.00 0.14 0.00 74 1014.2
20260507092531 67 0 1.0 5.0 0.00 0.14 0.00 71 1014.2
20260507092030 67 309 0.0 4.0 0.00 0.14 0.00 73 1014.1
20260507091547 66 311 0.0 2.0 0.00 0.14 0.00 74 1014.2
20260507091033 65 0 0.0 5.0 0.00 0.14 0.00 71 1014.1
20260507090533 65 0 2.0 5.0 0.00 0.14 0.00 72 1014.2
20260507090048 65 317 2.0 5.0 0.00 0.14 0.00 71 1014.2
20260507085533 65 309 0.0 4.0 0.00 0.14 0.00 73 1014.3
20260507085033 65 321 1.0 6.0 0.00 0.14 0.00 75 1014.2
20260507084548 65 0 2.0 6.0 0.00 0.14 0.00 74 1014.3
20260507084034 65 122 2.0 5.0 0.00 0.14 0.00 74 1014.3
20260507083533 65 0 2.0 5.0 0.00 0.14 0.00 74 1014.2
20260507083047 65 107 2.0 5.0 0.00 0.14 0.00 75 1014.3
20260507082534 64 118 1.0 4.0 0.00 0.14 0.00 75 1014.2
20260507082033 64 0 0.0 4.0 0.00 0.14 0.00 76 1014.3
20260507081547 64 150 1.0 5.0 0.00 0.14 0.00 77 1014.3
20260507081031 64 136 0.0 5.0 0.00 0.14 0.00 78 1014.3
20260507080535 64 75 1.0 5.0 0.00 0.14 0.00 77 1014.4
20260507080051 64 0 0.0 2.0 0.00 0.14 0.00 79 1014.4
20260507075533 63 0 0.0 4.0 0.00 0.14 0.00 80 1014.3
20260507075033 63 0 0.0 4.0 0.00 0.14 0.00 80 1014.3
20260507074549 63 77 1.0 4.0 0.00 0.14 0.00 80 1014.4
20260507074031 64 0 0.0 3.0 0.00 0.14 0.00 80 1014.3
20260507073533 64 117 0.0 3.0 0.00 0.14 0.00 80 1014.2
20260507073107 63 0 0.0 3.0 0.00 0.14 0.00 80 1014.2
20260507072533 63 153 0.0 2.0 0.00 0.14 0.00 81 1014.2
20260507072030 62 121 0.0 2.0 0.00 0.14 0.00 82 1014.1
20260507071547 62 90 0.0 2.0 0.00 0.14 0.00 84 1014.2
20260507071031 61 75 0.0 2.0 0.00 0.14 0.00 84 1014.0
20260507070535 61 0 0.0 1.0 0.00 0.14 0.00 85 1014.1
20260507070045 61 291 0.0 1.0 0.00 0.14 0.00 84 1014.1
20260507065536 61 0 0.0 1.0 0.00 0.14 0.00 84 1013.9
20260507065035 61 0 0.0 0.0 0.00 0.14 0.00 87 1014.0
20260507064559 60 0 0.0 0.0 0.00 0.14 0.00 87 1013.8
20260507064031 59 0 0.0 0.0 0.00 0.14 0.00 88 1014.1
20260507063531 59 0 0.0 1.0 0.00 0.14 0.00 89 1014.1
20260507063055 58 0 0.0 1.0 0.00 0.14 0.00 89 1013.9
20260507062533 58 342 0.0 3.0 0.00 0.14 0.00 89 1013.8
20260507062032 58 0 0.0 3.0 0.00 0.14 0.00 91 1013.8
20260507061541 58 80 0.0 3.0 0.00 0.14 0.00 91 1013.7
20260507061030 57 0 0.0 1.0 0.00 0.14 0.00 93 1013.6
20260507060532 57 0 0.0 2.0 0.00 0.14 0.00 94 1013.7
20260507060047 56 0 0.0 3.0 0.00 0.14 0.00 94 1013.6
20260507055533 56 70 0.0 3.0 0.00 0.22 0.00 95 1013.5
20260507055034 55 0 0.0 0.0 0.00 0.22 0.00 95 1013.6
20260507054545 55 0 0.0 0.0 0.00 0.22 0.00 95 1013.4
20260507054035 55 0 0.0 0.0 0.00 0.22 0.00 95 1013.2
20260507053534 54 0 0.0 0.0 0.00 0.22 0.00 96 1013.5
20260507053045 54 0 0.0 1.0 0.00 0.22 0.00 96 1013.3
20260507052532 53 0 0.0 1.0 0.00 0.22 0.00 95 1013.5
20260507052034 53 0 0.0 1.0 0.00 0.22 0.00 96 1013.2
20260507051545 53 0 0.0 3.0 0.00 0.22 0.00 96 1013.2
20260507051037 52 0 1.0 3.0 0.00 0.22 0.00 95 1013.2
20260507050533 52 107 1.0 2.0 0.00 0.22 0.00 95 1013.3
20260507050047 53 126 0.0 1.0 0.00 0.22 0.00 95 1013.1
20260507045531 53 0 0.0 0.0 0.00 0.74 0.00 96 1013.1
20260507045033 52 0 0.0 0.0 0.00 0.74 0.00 96 1013.1
20260507044541 52 0 0.0 0.0 0.00 0.74 0.00 96 1013.1
20260507044031 52 0 0.0 0.0 0.00 0.74 0.00 96 1013.2
20260507043531 52 0 0.0 0.0 0.00 0.74 0.00 95 1013.1
20260507043048 51 0 0.0 0.0 0.00 0.74 0.00 95 1013.0
20260507042535 52 0 0.0 0.0 0.00 0.74 0.00 96 1012.9
20260507042033 51 0 0.0 0.0 0.00 0.74 0.00 95 1013.0
20260507041547 51 0 0.0 0.0 0.00 0.74 0.00 95 1013.2
20260507041033 51 0 0.0 0.0 0.00 0.74 0.00 95 1012.9
20260507040534 51 0 0.0 0.0 0.00 0.74 0.00 95 1012.8
20260507040050 51 0 0.0 0.0 0.00 0.74 0.00 95 1012.8
20260507035533 51 0 0.0 0.0 0.00 1.67 0.00 95 1012.7
20260507035033 51 0 0.0 0.0 0.00 1.67 0.00 95 1012.9
20260507034607 51 0 0.0 0.0 0.00 1.67 0.00 95 1012.9
20260507034032 51 0 0.0 0.0 0.00 1.67 0.00 95 1012.9
20260507033531 51 0 0.0 0.0 0.00 1.67 0.00 94 1013.0
20260507033103 52 0 0.0 0.0 0.00 1.67 0.00 95 1012.9
20260507032534 52 0 0.0 0.0 0.00 1.67 0.00 95 1012.8
20260507032033 52 0 0.0 0.0 0.00 1.67 0.00 95 1012.9
20260507031547 52 0 0.0 0.0 0.00 1.67 0.00 95 1013.0
20260507031034 52 0 0.0 0.0 0.00 1.67 0.00 94 1012.9
20260507030536 52 0 0.0 0.0 0.00 1.67 0.00 94 1012.8
20260507030045 52 0 0.0 0.0 0.00 1.67 0.00 94 1012.8
20260507025531 52 0 0.0 0.0 0.00 2.61 0.00 94 1012.8
20260507025034 52 0 0.0 0.0 0.00 2.61 0.00 94 1012.9
20260507024553 52 0 0.0 0.0 0.00 2.61 0.00 94 1012.9
20260507024034 53 0 0.0 0.0 0.00 2.61 0.00 94 1012.9
20260507023538 53 0 0.0 0.0 0.00 2.61 0.00 94 1012.8
20260507023044 53 0 0.0 0.0 0.00 2.61 0.00 94 1012.9
20260507022531 53 0 0.0 0.0 0.00 2.61 0.00 93 1012.7
20260507022035 54 0 0.0 0.0 0.00 2.61 0.00 93 1012.8
20260507021547 54 0 0.0 0.0 0.00 2.61 0.00 94 1012.8
20260507021039 54 0 0.0 0.0 0.00 2.61 0.00 94 1012.8
20260507020534 54 0 0.0 0.0 0.00 2.61 0.00 94 1012.8
20260507020047 54 0 0.0 1.0 0.00 2.61 0.00 94 1012.8
20260507015533 54 0 0.0 1.0 0.00 2.62 0.00 94 1012.9
20260507015037 54 0 0.0 0.0 0.00 2.62 0.00 94 1012.9
20260507014542 54 0 0.0 0.0 0.00 2.62 0.00 94 1012.8
20260507014031 54 0 0.0 1.0 0.00 2.62 0.00 94 1012.7
20260507013533 54 0 0.0 1.0 0.00 2.62 0.00 94 1012.8
20260507013041 54 75 0.0 1.0 0.00 2.62 0.00 94 1012.8
20260507012534 54 0 0.0 2.0 0.00 2.62 0.00 94 1012.8
20260507012031 54 0 0.0 2.0 0.00 2.62 0.00 94 1012.9
20260507011546 54 0 0.0 0.0 0.00 2.62 0.00 94 1012.7
20260507011032 54 0 0.0 0.0 0.00 2.62 0.00 93 1012.5
20260507010533 54 0 0.0 0.0 0.00 2.62 0.00 93 1012.7
20260507010052 54 0 0.0 0.0 0.00 2.62 0.00 93 1012.9
20260507005533 54 0 0.0 0.0 0.00 2.84 0.00 93 1012.9
20260507005032 54 0 0.0 0.0 0.00 2.84 0.00 93 1012.8
20260507004542 54 0 0.0 0.0 0.00 2.84 0.00 93 1012.8
20260507004031 54 0 0.0 0.0 0.00 2.84 0.00 93 1012.8
20260507003533 55 0 0.0 0.0 0.00 2.84 0.00 93 1012.8
20260507003046 55 0 0.0 0.0 0.00 2.84 0.00 93 1012.8
20260507002531 55 0 0.0 0.0 0.00 2.84 0.00 92 1012.9
20260507002033 55 0 0.0 0.0 0.00 2.84 0.00 92 1012.8
20260507001606 55 0 0.0 1.0 0.00 2.84 0.00 92 1012.9
20260507001031 55 0 0.0 3.0 0.00 2.84 0.00 92 1012.7
20260507000531 55 94 0.0 3.0 0.00 2.84 0.00 92 1012.8
20260507000047 55 120 1.0 3.0 0.00 2.84 0.00 92 1012.9
20260506235533 55 104 1.0 4.0 0.00 3.25 0.00 92 1012.9
20260506235036 56 0 0.0 4.0 0.00 3.25 0.00 92 1012.8
20260506234555 56 146 1.0 5.0 0.00 3.25 0.00 92 1012.9
20260506234033 56 128 1.0 6.0 0.00 3.25 0.00 92 1012.8
20260506233533 56 129 2.0 6.0 0.00 3.25 0.00 92 1012.9
20260506233045 56 165 2.0 6.0 0.00 3.25 0.00 92 1012.8
20260506232533 56 149 3.0 6.0 0.00 3.25 0.00 92 1012.9
20260506232034 56 107 3.0 6.0 0.00 3.25 0.00 92 1012.9
20260506231544 56 149 2.0 6.0 0.00 3.25 0.00 92 1012.8
20260506231032 56 115 1.0 4.0 0.00 3.25 0.00 92 1012.9
20260506230531 56 113 2.0 4.0 0.00 3.25 0.00 92 1012.8
20260506230043 56 115 2.0 4.0 0.00 3.25 0.00 92 1012.7
20260506225531 56 120 1.0 3.0 0.00 3.61 0.00 92 1012.7
20260506225033 56 121 1.0 3.0 0.00 3.61 0.00 92 1012.9
20260506224603 56 106 1.0 3.0 0.00 3.61 0.00 92 1012.8
20260506224030 57 131 0.0 2.0 0.00 3.61 0.00 92 1012.9
20260506223530 57 110 0.0 2.0 0.00 3.61 0.00 92 1012.8
20260506223046 57 0 0.0 3.0 0.00 3.61 0.00 92 1013.0
20260506222533 57 0 1.0 5.0 0.00 3.61 0.00 91 1012.9
20260506222034 57 0 2.0 5.0 0.00 3.61 0.00 91 1013.0
20260506221543 57 123 2.0 5.0 0.00 3.61 0.00 92 1013.0
20260506221032 57 101 1.0 5.0 0.00 3.61 0.00 92 1012.9
20260506220531 58 95 1.0 5.0 0.00 3.61 0.00 92 1012.8
20260506215532 58 0 0.0 4.0 0.00 3.61 3.61 92 1012.9
20260506215031 58 0 1.0 4.0 0.00 3.61 3.61 92 1012.7
20260506214549 58 107 0.0 1.0 0.00 3.61 3.61 92 1012.6
20260506214033 59 0 0.0 0.0 0.00 3.61 3.61 92 1012.7
20260506213532 59 0 0.0 0.0 0.00 3.61 3.61 92 1012.6
20260506213047 59 0 0.0 0.0 0.00 3.61 3.61 92 1012.8
20260506212534 59 0 0.0 0.0 0.00 3.61 3.61 92 1012.8
20260506212033 59 0 0.0 0.0 0.00 3.61 3.61 92 1012.8
20260506211551 59 0 0.0 0.0 0.00 3.61 3.61 91 1012.7
20260506211032 59 0 0.0 0.0 0.00 3.61 3.61 91 1012.7
20260506210533 59 0 0.0 0.0 0.00 3.61 3.61 91 1012.6
20260506210047 59 0 0.0 0.0 0.00 3.61 3.61 91 1012.8
20260506205533 59 0 0.0 2.0 0.00 3.61 3.61 91 1012.7
20260506205033 59 0 0.0 2.0 0.00 3.61 3.61 91 1012.5
20260506204544 59 94 0.0 3.0 0.00 3.61 3.61 90 1012.5
20260506204036 60 85 1.0 3.0 0.00 3.61 3.61 90 1012.6
20260506203533 60 79 1.0 2.0 0.00 3.61 3.61 89 1012.3
20260506203056 61 85 0.0 2.0 0.00 3.61 3.61 87 1012.3
20260506202533 61 0 0.0 2.0 0.00 3.61 3.61 86 1012.2
20260506202033 61 297 0.0 1.0 0.00 3.61 3.61 86 1012.2
20260506201546 61 0 0.0 1.0 0.00 3.61 3.61 87 1012.3
20260506201033 61 258 0.0 1.0 0.00 3.61 3.61 87 1012.3
20260506200534 61 0 0.0 1.0 0.00 3.61 3.61 87 1012.3
20260506200043 61 0 0.0 2.0 0.00 3.61 3.61 87 1012.1
20260506195532 61 0 0.0 2.0 0.00 3.61 3.61 87 1012.1
20260506195031 62 259 1.0 2.0 0.00 3.61 3.61 87 1012.0
20260506194551 62 272 0.0 2.0 0.00 3.61 3.61 87 1011.8